Changchun Longjia International

Airport
ICAO code: 
ZYCC
Summary
ICAO Region: 
APAC
Territory: 
Location: 
Changchun, Jilin,
Coordinates: 
Aerial View: 
43° 59' 46" N, 125° 41' 7.001" E
Metar
Observation
ZYCC 241700Z 00000MPS 4000 FU NSC M15/M19 Q1022 NOSIG
Station
Changchun
Date/Time
2022-01-24 17:00:00
Wind direction
Lowest cloud amount
nil significant cloud
Temperature
-15°C
Dew point
-19°C
Humidity
71%
QNH
1022 hPa
Weather condition
n/a

Changchun Longjia International Airport is an airport in Jilin Province, People's Republic of China (IATA: CGQ), for which it is an aviation hub. The airport is 31.2 km north-east of Changchun and 76 km north-west of Jilin City.

Runways

Designator Length Width Surface Rops
6/24 3200 45 CON Yes/Yes
Airport map: 
Aerial View: 

SKYbrary Partners:

Safety knowledge contributed by: